La Junta, CO

8:29 PM MDT on August 19, 2017 (GMT -0600)
La Junta Municipal

Weather History for KLHX - August, 2013

Change the Weather History Date:

Wednesday, August 21, 2013

  Actual Average Record
Temperature  
Mean Temperature 82 °F 76 °F  
Max Temperature 100 °F 90 °F 101 °F (1973)
Min Temperature 63 °F 61 °F 51 °F (1956)
Degree Days  
Heating Degree Days 0 0  
Month to date heating degree days 0 0  
Since 1 June heating degree days 11 17  
Since 1 July heating degree days 0 1  
Cooling Degree Days 17 11  
Month to date cooling degree days 254 251  
Year to date cooling degree days 1221 982  
Since 1 June cooling degree days 1083 909  
Growing Degree Days 32 (Base 50)    
Moisture  
Dew Point 48 °F    
Average Humidity 41    
Maximum Humidity 67    
Minimum Humidity 14    
Precipitation  
Precipitation 0.00 in 0.05 in 1.98 in (1969)
Month to date precipitation 0.45 1.17  
Year to date precipitation 4.01  
Sea Level Pressure  
Sea Level Pressure 29.82 in    
Wind  
Wind Speed 9 mph (West)    
Max Wind Speed 24 mph    
Max Gust Speed 28 mph    
Visibility 10 miles    
Events      
T = Trace of Precipitation, MM = Missing Value Source: NWS Daily Summary

Daily Weather History Graph

Daily Weather History Graph

Search for Another Location

Airport or City:

Trip Planner

Search our weather history database for the weather conditions in past years. The results will help you decide how hot, cold, wet, or windy it might be!

Date:

Astronomy

Aug. 21, 2013 Rise Set
Actual Time 6:14 AM MDT 7:38 PM MDT
Civil Twilight 5:46 AM MDT 8:06 PM MDT
Nautical Twilight 5:13 AM MDT 8:39 PM MDT
Astronomical Twilight 4:38 AM MDT 9:14 PM MDT
Moon 7:51 PM MDT (8/21) 6:55 AM MDT (8/21)
Length of Visible Light 14h 19m
Length of Day
13h 24m
Full, 99% of the Moon is Illuminated
Aug 21
Full
Aug 28
Last Quarter
Sep 5
New
Sep 12
First Quarter
Sep 19
Full

Hourly Weather History & Observations

Time (MDT) Temp. Heat Index Dew Point Humidity Pressure Visibility Wind Dir Wind Speed Gust Speed Precip Events Conditions
12:53 AM 80.1 °F 80.0 °F 54.0 °F 40% 29.77 in 10.0 mi SSW 10.4 mph - N/A   Clear
1:53 AM 78.1 °F - 52.0 °F 40% 29.76 in 10.0 mi SSW 10.4 mph - N/A   Clear
2:53 AM 75.9 °F - 48.9 °F 38% 29.76 in 10.0 mi SW 15.0 mph - N/A   Clear
3:53 AM 69.1 °F - 50.0 °F 51% 29.79 in 10.0 mi WNW 5.8 mph - N/A   Clear
4:53 AM 66.0 °F - 48.9 °F 54% 29.80 in 10.0 mi West 10.4 mph - N/A   Clear
5:53 AM 66.0 °F - 46.9 °F 50% 29.80 in 10.0 mi West 11.5 mph - N/A   Clear
6:53 AM 64.0 °F - 53.1 °F 67% 29.84 in 10.0 mi WNW 12.7 mph - N/A   Clear
7:53 AM 70.0 °F - 55.0 °F 59% 29.85 in 10.0 mi WNW 10.4 mph - N/A   Clear
8:53 AM 75.0 °F - 55.9 °F 51% 29.86 in 10.0 mi WNW 9.2 mph - N/A   Clear
9:53 AM 81.0 °F 81.0 °F 57.0 °F 44% 29.86 in 10.0 mi WNW 9.2 mph - N/A   Clear
10:53 AM 88.0 °F - 50.0 °F 27% 29.85 in 10.0 mi NW 8.1 mph - N/A   Clear
11:53 AM 91.0 °F - 50.0 °F 24% 29.83 in 10.0 mi Variable 3.5 mph - N/A   Clear
12:53 PM 93.9 °F - 48.0 °F 21% 29.81 in 10.0 mi Variable 4.6 mph - N/A   Clear
1:53 PM 96.1 °F - 46.0 °F 18% 29.81 in 10.0 mi South 5.8 mph - N/A   Clear
2:53 PM 98.1 °F - 41.0 °F 14% 29.78 in 10.0 mi Calm Calm - N/A   Clear
3:53 PM 98.1 °F - 43.0 °F 15% 29.78 in 10.0 mi Variable 6.9 mph - N/A   Clear
4:53 PM 100.0 °F - 42.1 °F 14% 29.76 in 10.0 mi North 8.1 mph - N/A   Clear
5:53 PM 98.1 °F - 42.1 °F 15% 29.77 in 10.0 mi North 6.9 mph - N/A   Clear
6:53 PM 91.0 °F - 48.0 °F 23% 29.78 in 10.0 mi NNE 6.9 mph - N/A   Clear
7:53 PM 88.0 °F - 46.9 °F 24% 29.78 in 10.0 mi NNE 4.6 mph - N/A   Clear
8:53 PM 91.0 °F - 43.0 °F 19% 29.81 in 10.0 mi SSW 12.7 mph 26.5 mph N/A   Partly Cloudy
9:53 PM 84.9 °F - 46.9 °F 27% 29.83 in 10.0 mi West 19.6 mph - N/A   Clear
10:53 PM 82.0 °F - 46.9 °F 29% 29.82 in 10.0 mi WNW 17.3 mph - N/A   Clear
11:24 PM 82.4 °F - 46.4 °F 28% 30.04 in 10.0 mi West 20.7 mph - N/A   Clear
11:53 PM 80.1 °F - 46.9 °F 31% 29.84 in 10.0 mi WSW 15.0 mph - N/A   Clear